Location: Ariel
(45.9570°N, 122.5700°W)
Time: 03:43:56
(UTC-07:00)

Tiros 1 - Pass Details

Date: 23 July 2019
Orbit: 630 x 664 km, 48.4° (Epoch: 19 August)

Event Time Altitude Azimuth Distance (km) Brightness Sun altitude
Rises 12:52:21 0° 235° (SW) 2,978 10.7 63.6°
Reaches altitude 10° 12:54:42 10° 232° (SW) 2,071 10.1 63.7°
Maximum altitude 12:59:25 61° 153° (SSE) 755 10.1 63.8°
Drops below altitude 10° 13:04:10 10° 74° (ENE) 2,085 9.9 63.9°
Sets 13:06:32 0° 71° (ENE) 2,999 10.5 64.0°
